Regional Weather Roundup
Issued by NWS

Home | Current Version | Previous Version | Graphics & Text | Print | Product List | Glossary Off
Versions: 1 2 3 4 5 6 7 8 9 10 11 12 13 14 15 16 17 18 19 20 21 22 23 24 25 26 27 28 29 30 31 32 33 34 35 36 37 38 39 40 41 42 43 44 45 46 47 48 49 50

791
ASUS43 KDMX 261506
RWRIA

WEATHER ROUNDUP FOR IOWA
NATIONAL WEATHER SERVICE DES MOINES IA
900 AM CST SUN FEB 26 2017

NOTE: "FAIR" INDICATES FEW OR NO CLOUDS BELOW 12,000 FEET WITH NO
SIGNIFICANT WEATHER AND/OR OBSTRUCTIONS TO VISIBILITY.

* - THESE STATIONS ARE NOT NWS STATIONS...THUS NOT UNDER NWS
QUALITY CONTROL.  THEY ALSO DO NOT REPORT WEATHER SUCH
AS PRECIPITATION OR FOG.

IAZ001>003-012>014-020>022-031>034-043>046-261600-
   NORTHWEST IOWA

CITY           SKY/WX    TMP DP  RH WIND       PRES   REMARKS
CARROLL *      SUNNY     27  23  86 SW12      29.87R WCI  16
CHEROKEE *     SUNNY     21  17  82 SW5       29.86R WCI  15
DENISON *      SUNNY     27  18  69 SW8       29.86R WCI  18
LE MARS *      SUNNY     23  14  68 SW7       29.87R WCI  15
SHELDON *      SUNNY     21  21 100 SW8       29.82R WCI  12
SIOUX CITY     SUNNY     22  11  62 NW8       29.88R WCI  12
SPENCER        SUNNY     20  15  81 SW7       29.83R WCI  11
STORM LAKE *   SUNNY     21  16  79 SW12      29.83R WCI   9
$$

IAZ055>058-069>071-079>083-090>094-261600-
   SOUTHWEST IOWA

CITY           SKY/WX    TMP DP  RH WIND       PRES   REMARKS
ATLANTIC *     SUNNY     32  25  74 SW10      29.91R WCI  24
AUDUBON *      SUNNY     30  23  74 SW8       29.89S WCI  23
CLARINDA *     SUNNY     37  25  60 SW14G21   29.96S WCI  29
COUNCIL BLFS * SUNNY     34  21  60 W14       29.91R WCI  24
CRESTON *      SUNNY     36  23  60 SW14      29.94R WCI  27
HARLAN  *      SUNNY     27  25  93 SW9       29.93R WCI  17
LAMONI         SUNNY     38  21  50 SW17G25   29.94R WCI  28
RED OAK *      SUNNY     36  25  64 SW14      29.93R WCI  27
SHENANDOAH *   SUNNY     37  27  65 SW12      29.94S WCI  30
$$

IAZ047>049-059>061-072>074-084-261600-
   CENTRAL IOWA

CITY           SKY/WX    TMP DP  RH WIND       PRES   REMARKS
AMES           SUNNY     31  25  78 SW12      29.89R WCI  22
ANKENY *       SUNNY     36  23  60 SW12      29.93R WCI  27
BOONE *        SUNNY     30  21  69 SW12      29.87S WCI  21
CHARITON *     SUNNY     36  21  55 SW14      29.94R WCI  27
DES MOINES     MOSUNNY   35  24  64 SW9       29.91R WCI  28
GRINNELL*      SUNNY     32  24  70 SW14      29.93R WCI  22
KNOXVILLE *    SUNNY     36  21  55 SW14G21   29.92R WCI  27
MARSHALLTOWN   SUNNY     32  25  75 SW16      29.89R WCI  21
NEWTON *       SUNNY     32  25  74 SW12      29.91R WCI  23
PELLA *        SUNNY     36  22  56 W8        29.95R WCI  30
PERRY *          N/A     30  25  79 S9        29.90R WCI  22
$$

IAZ004>006-015-016-023>025-035-036-261600-
   NORTH CENTRAL IOWA

CITY           SKY/WX    TMP DP  RH WIND       PRES   REMARKS
ALGONA *       FLURRIES  18  14  86 SW13      29.83R WCI   4
CLARION *      SUNNY     21  19  93 S7        29.86R WCI  13
ESTHERVILLE    SUNNY     21  17  84 W13       29.80R WCI   9
FORT DODGE *   SUNNY     25  18  74 SW7       29.86S WCI  17
MASON CITY     SUNNY     24  18  77 SW16      29.84R WCI  11
FOREST CITY *    N/A     23  19  86 SW8       29.82S WCI  14
WEBSTER CITY * SUNNY     27  21  80 SW9       29.85R WCI  17
IOWA FALLS *     N/A     29  23  77 SW16      29.88R WCI  18
$$

IAZ007>011-017>019-026>030-037>042-050>054-066-261600-
   NORTHEAST IOWA

CITY           SKY/WX    TMP DP  RH WIND       PRES   REMARKS
CEDAR RAPIDS   SUNNY     33  22  63 SW16      29.90R WCI  23
CHARLES CITY * SUNNY     27  21  80 SW15      29.84S WCI  15
CLINTON *      PTSUNNY   35  22  58 SW24      29.92F WCI  23
DECORAH *      SUNNY     30  21  69 VRB6G14   29.81S WCI  24
DUBUQUE        SUNNY     30  21  69 SW18      29.87R WCI  18
MONTICELLO *   SUNNY     34  21  60 SW14G20   29.89S WCI  24
OELWEIN *      SUNNY     30  25  80 W15G22    29.86R WCI  19
WATERLOO       SUNNY     31  23  72 SW16      29.87R WCI  20
$$

IAZ064-065-067-068-078-261600-
   EAST CENTRAL IOWA

CITY           SKY/WX    TMP DP  RH WIND       PRES   REMARKS
DAVENPORT      MOSUNNY   35  20  54 SW18      29.95R WCI  24
IOWA CITY      SUNNY     35  21  56 SW12      29.95R WCI  27
MUSCATINE *    MOSUNNY   37  18  44 SW22G31   29.97R WCI  27
QUAD CITIES    MOSUNNY   36  19  50 SW10      29.96R WCI  28
$$

IAZ062-063-075>077-085>089-095>099-261600-
   SOUTHEAST IOWA

CITY           SKY/WX    TMP DP  RH WIND       PRES   REMARKS
BURLINGTON     PTSUNNY   35  20  54 SW16      29.99R WCI  25
FAIRFIELD *    SUNNY     36  18  48 SW16G22   29.96R WCI  26
KEOKUK *       CLOUDY    34  19  55 S13G18    30.00S WCI  25
CENTERVILLE *    N/A     37  19  48 SW17      29.97S WCI  28
OTTUMWA        MOSUNNY   37  19  48 SW13      29.95R WCI  29
WASHINGTON *   MOSUNNY   36  21  55 SW18      29.96S WCI  25
$$

ABBREVIATIONS USED IN REMARKS
   TC - TEMPERATURES IN CELSIUS
  WCI - WIND CHILL INDEX
   HX - HEAT INDEX
  VSB - VISIBILITY
$$





USA.gov is the U.S. government's official web portal to all federal, state and local government web resources and services.